THOR ABLESTAR DEB, 48817

Orbit data source: Space-Track

THOR ABLESTAR DEB, 48817 is space debris in LEO originally from a launch on Thu, 29 Jun 1961 UTC launched from the Air Force Eastern Test Range (AFETR). Debris objects in space refer to the collection of defunct objects orbiting the Earth. Examples of debris include non-operational satellites, rocket bodies, and fragments generated from explosions, collisions, or faulty payload assembly.

Loading next visibility...
Identifier
48817, 1961-015MV
Orbit
LEO
Country
Flag of USUS
Related business
Manufacturer
Unknown
Mission
Spacecraft
Bus & Motor
Unknown
Mass
Unknown
Launch date (UTC)
1961-06-29 (65 years ago)
Launch vehicle
Unknown
Launch site
Air Force Eastern Test Range (AFETR)
Object type
Payload
Rocket body
Debris
Shape & HBR
Unknown shape, 0.1 m
Radar Cross Section
Small (<0.1 m²)

Expand to show TLE details & history
Last TLE update: 2 days ago

TLE from 2 days ago
0 THOR ABLESTAR DEB
1 48817U 61015MV  26125.39167370  .00000140  00000-0  15074-3 0  9998
2 48817  65.8397 113.7538 0216367 239.0564 118.9084 13.89941128631311
Epoch: 2026-05-05T09:24Z
TLE epoch observation values (Epoch: 2026-05-05T09:24:00.607Z)
Latitude
-0.00001°
Longitude
109.48408°
Altitude
1,009.852 km
Speed
7.307 km/s
True Right ascension
07h 35m 00s
True Declination
0° 00' 00"
Sunlit
Object was in daylight at epoch
Visualization orbit readout
Latitude
Unknown
Longitude
Unknown
Altitude
Unknown
Speed
Unknown
Apparent Right ascension
Unknown
Apparent Declination
Unknown
Sunlit
N/A
Visualization observer readout
Local Sidereal Time
08:31:05
Azimuth
Unknown
Elevation
Unknown
Doppler factor
Unknown
Orbital elements
Apogee altitude
1,085.408 km
Perigee altitude
769.275 km
Semi-major axis
7,305.479 km
Eccentricity
0.02164
Inclination
65.8397°
RAAN
113.7538°
Arg. of periapsis
239.0564°
True anomaly
121.05031°
Mean anomaly
118.9084°
Eccentric anomaly
119.9822°
Mean motion
3.47592 °/min
Orbital period
103.57 mins
BSTAR
0.00015074
Loading maneuver chart data...
Computing Atmospheric mass density...

Documentation

Showing up to 5 results
|